Location: Hegeney
(48.8903°N, 7.7402°E)
Time: 13:11:33
(UTC+00:00)

Daily predictions for brighter satellites

Satellite Brightness Start Highest point End
(mag) Time Altitude Azimuth Time Altitude Azimuth Time Altitude Azimuth
Cosmos 676 Rocket 4.4 20:08:47 10° NNW 20:14:06 67° WSW 20:19:23 10° S
Cosmos 1470 3.0 20:10:46 10° NNW 20:14:46 74° W 20:18:42 10° S
Cosmos 1954 Rocket 4.4 20:09:49 10° NNW 20:15:07 64° WSW 20:20:21 10° S
Meteor 1-21 4.2 20:09:33 10° S 20:15:12 76° E 20:20:50 10° NNE
CENTAUR R/B 2.6 20:09:17 10° SW 20:15:15 82° SE 20:22:26 10° NE
Ariane Rocket 4.2 20:14:02 10° S 20:18:50 42° W 20:23:41 10° NNW
Cosmos 1315 Rocket 3.2 20:21:06 10° NNW 20:25:14 67° W 20:29:18 10° S
USA 81 4.1 20:21:09 10° N 20:26:27 81° E 20:31:43 10° S
Cosmos 1674 3.5 20:23:09 10° SSE 20:26:31 33° E 20:29:53 10° NNE
Cosmos 1980 Rocket 3.7 20:21:16 10° WSW 20:26:36 42° NW 20:31:56 10° NNE
Okean 1 Rocket 3.7 20:24:57 10° NNW 20:29:13 56° W 20:33:30 10° S
Cosmos 2278 Rocket 4.4 20:25:47 10° N 20:29:20 17° NE 20:32:53 10° ENE
Cosmos 1455 Rocket 3.4 20:28:03 10° N 20:32:26 54° ENE 20:36:48 10° SSE
Cosmos 1727 Rocket 4.0 20:29:07 10° S 20:35:25 77° E 20:41:42 10° NNE
USA 267 4.2 20:30:12 10° E 20:36:25 48° N 20:42:38 10° WNW
Meteor 2-20 Rocket 4.5 20:34:11 10° S 20:40:16 76° E 20:46:24 10° NNE
Cosmos 1726 3.5 20:37:55 10° NNW 20:41:16 35° W 20:44:37 10° SSW
Cosmos 1844 Rocket 2.9 20:36:38 10° NNW 20:42:19 65° ENE 20:47:39 12° SE
BREEZE-M DEB (TANK) 3.0 20:40:52 10° SW 20:43:14 37° SE 20:47:50 10° ENE
Cosmos 1758 3.9 20:39:38 10° NNW 20:43:32 55° W 20:47:25 10° S
Cosmos 2285 Rocket 4.3 20:38:53 10° SSW 20:45:20 76° WNW 20:51:48 10° NNE
Cosmos 1802 Rocket 4.2 20:43:56 10° N 20:50:07 59° ENE 20:55:59 12° SSE
Cosmos 292 Rocket 4.1 20:46:04 10° SSW 20:50:54 72° WNW 20:55:44 10° NNE
Cosmos 1908 3.3 20:47:05 10° N 20:50:58 69° ENE 20:54:25 13° SSE
Cosmos 1340 3.9 20:51:54 14° SE 20:54:22 25° E 20:57:31 10° NE
Lacrosse 5 rocket 2.2 20:51:51 10° S 20:54:45 22° SE 20:57:37 10° ENE
Cosmos 2263 Rocket 3.9 20:50:09 10° NW 20:54:49 27° WSW 20:59:30 10° SSW
SPOT 5 3.0 20:53:08 11° SSE 20:58:05 81° ENE 21:03:02 10° NNW
Cosmos 405 4.0 20:56:40 10° N 20:59:48 31° ENE 21:02:06 15° SE
Cosmos 1707 4.1 20:56:49 10° SW 21:00:29 40° WNW 21:04:12 10° N
DNEPR-1 R/B 4.2 20:58:15 10° NNW 21:02:22 46° NE 21:06:16 12° ESE
Cosmos 1452 Rocket 3.7 20:57:18 10° SSW 21:02:36 79° WNW 21:07:55 10° NNE
In-Cosmos 22 4.4 21:03:02 10° SSW 21:08:17 66° WNW 21:13:35 10° N
Cosmos 1459 Rocket 4.0 21:02:44 10° N 21:08:50 86° W 21:14:34 12° S
Resurs 01 Rocket 3.9 21:06:46 10° SW 21:10:02 20° W 21:13:19 10° NW
Terra 1.9 21:06:08 14° SSE 21:10:09 76° ENE 21:14:56 10° N
Cosmos 1953 2.7 21:07:28 10° NNW 21:11:30 63° W 21:15:10 12° S
Lacrosse 5 3.3 21:08:11 10° WNW 21:12:21 26° SW 21:16:06 12° S
Cosmos 2333 Rocket 2.9 21:09:00 12° S 21:13:45 37° ESE 21:18:58 10° NE
Cosmos 1025 Rocket 3.0 21:10:01 11° S 21:14:08 71° E 21:18:30 10° NNE
CARTOSAT-1 4.3 21:11:01 10° S 21:15:11 48° W 21:19:23 10° NNW
Cosmos 1000 Rocket 4.5 21:11:38 10° S 21:17:47 88° WNW 21:23:58 10° N
NOSS 3-2 (C) 4.3 21:13:22 10° WSW 21:19:02 56° NW 21:25:41 10° NE
SL-14 R/B 3.6 21:17:36 17° SSE 21:20:31 52° E 21:24:28 10° NNE
Cosmos 2228 4.4 21:17:57 10° N 21:21:45 27° ENE 21:24:34 15° ESE
FALCON 9 DEB 3.1 21:19:04 10° SW 21:22:25 54° SSE 21:25:46 10° ENE
Spot 2 Rocket 4.4 21:18:08 10° S 21:22:57 43° W 21:27:49 10° NNW
Cosmos 1975 Rocket 3.9 21:19:51 10° SSW 21:24:06 51° WNW 21:28:24 10° N
Cosmos 2061 Rocket 4.1 21:17:57 10° N 21:24:26 81° E 21:29:43 16° SSE
ATLAS 3B R/B 2.9 21:19:25 10° S 21:25:33 45° ESE 21:31:53 10° NE
Cosmos 1844 3.7 21:20:29 10° NNW 21:26:03 75° WSW 21:30:18 18° SSE
Cosmos 1461 3.4 21:24:18 10° NW 21:28:24 48° WSW 21:30:58 20° S
Cosmos 1331 Rocket 4.0 21:23:19 10° SSW 21:28:34 82° ESE 21:33:53 10° NNE
Cosmos 2219 Rocket 2.7 21:24:38 15° S 21:28:56 41° ESE 21:34:14 10° NE
ERS-1 Rocket 3.5 21:24:38 13° S 21:29:06 55° W 21:34:04 10° NNW
Cosmos 1626 2.2 21:27:13 13° SSW 21:30:28 76° W 21:34:10 10° N
Cosmos 1864 Rocket 4.5 21:24:36 10° N 21:30:52 86° E 21:35:46 17° S
Aureole 1 Rocket 4.4 21:28:47 10° NNW 21:34:23 61° WSW 21:40:17 15° S
Meteor 2-10 Rocket 4.1 21:29:34 10° N 21:34:28 43° ENE 21:37:47 19° SE
Meteor 1-24 Rocket 4.1 21:30:57 19° SSE 21:34:31 45° E 21:39:42 10° NNE
BREEZE-M DEB (TANK) 3.4 21:36:29 10° W 21:38:45 20° SW 21:39:07 19° SSW
SL-8 R/B 4.0 21:34:18 10° W 21:38:56 50° SSW 21:41:58 20° SE
Cosmos 2123 Rocket 4.0 21:34:02 12° S 21:39:54 86° E 21:46:17 10° N
BREEZE-M DEB (TANK) 2.1 21:38:16 10° SW 21:40:52 51° SSE 21:46:29 10° ENE
ATLAS CENTAUR R/B 1.5 21:39:16 10° NW 21:43:35 86° SW 21:46:25 23° SE
FALCON 9 DEB 4.3 21:44:47 22° ESE 21:44:47 22° ESE 21:46:30 10° E
Cosmos 2237 Rocket 3.8 21:42:20 15° ESE 21:44:15 17° E 21:47:50 10° ENE
USA 215 3.5 21:38:00 10° ENE 21:44:17 48° SE 21:50:33 10° SSW
Cosmos 1302 Rocket 4.1 21:42:29 16° S 21:46:40 62° ESE 21:51:52 10° NNE
ARIANE 5 R/B 4.4 21:43:59 10° SSW 21:47:42 26° W 21:51:28 10° NW
Cosmos 1867 4.1 21:42:25 10° NNW 21:47:51 57° NE 21:52:15 15° ESE
Cosmos 2233 Rocket 4.0 21:42:30 10° N 21:48:41 76° E 21:53:01 21° SSE
SL-16 R/B 3.9 21:44:16 10° WSW 21:49:26 35° NW 21:54:38 10° NNE
SL-24 R/B 4.3 21:45:20 10° N 21:50:16 89° ESE 21:53:44 19° S
Cosmos 2360 Rocket 2.7 21:45:02 10° SW 21:50:38 63° WNW 21:56:16 10° NNE
Cosmos 2322 Rocket 3.6 21:46:47 10° WSW 21:52:09 40° NW 21:57:33 10° NNE
FALCON 9 DEB 4.1 21:53:44 25° ESE 21:53:44 25° ESE 21:55:38 10° E
Spot 4 4.4 21:52:23 20° SE 21:55:23 47° ENE 21:59:58 10° N
Centaur D AC-29 4.2 21:41:24 10° WSW 21:55:27 18° SW 21:59:44 13° S
Cosmos 1726 Rocket 4.5 21:51:56 10° N 21:56:08 38° ENE 21:58:33 21° SE
Cosmos 1455 3.5 21:57:28 10° N 22:00:53 29° ENE 22:02:38 20° ESE
Cosmos 389 Rocket 2.8 21:58:49 10° N 22:02:10 51° ENE 22:03:30 31° SE
COSMOS 2428 2.8 22:01:02 18° S 22:05:20 63° ESE 22:11:02 10° NNE
H-2A R/B 4.1 22:01:58 10° N 22:05:57 53° WNW 22:09:24 13° SW
CENTAUR R/B 4.4 22:00:50 10° W 22:06:44 36° NNW 22:13:41 10° NE
Cosmos 2322 3.7 22:02:40 10° SSW 22:08:19 90° WNW 22:14:01 10° NNE
Cosmos 1300 3.4 22:04:52 10° NNW 22:08:32 46° W 22:10:36 22° SSW
Cosmos 1606 Rocket 3.7 22:05:45 10° N 22:10:14 65° E 22:12:29 28° SSE
Cosmos 1892 Rocket 4.4 22:12:19 25° SE 22:14:08 37° E 22:18:13 10° NNE
ALOS 2 3.5 22:11:48 21° SE 22:14:14 39° ENE 22:18:20 10° N
Cosmos 2278 Rocket 2.5 22:08:59 10° NNW 22:14:38 62° ENE 22:18:27 21° SE
COBE Rocket 4.4 22:12:19 23° SE 22:15:18 52° ENE 22:20:07 10° N
SJ 16-02 3.9 22:13:33 10° NNE 22:15:34 13° NE 22:17:35 10° ENE
Cosmos 1486 Rocket 4.0 22:12:36 10° NNW 22:17:52 89° ENE 22:20:48 27° SSE
USA 267 3.3 22:12:31 10° ESE 22:19:05 83° NNE 22:25:40 10° NW
Cosmos 1346 Rocket 2.7 22:19:17 31° S 22:21:06 75° E 22:25:08 10° NNE
Cosmos 1844 Rocket 4.3 22:21:20 10° NW 22:25:43 23° WSW 22:29:19 13° SSW
SL-4 R/B 3.9 22:30:03 14° ESE 22:30:03 14° ESE 22:30:50 10° E
Meteor 2-5 Rocket 4.2 22:24:44 14° SSW 22:29:25 56° WNW 22:34:56 10° N
Cosmos 1340 4.5 22:26:37 10° SW 22:29:52 27° WNW 22:33:08 10° N
Cosmos 1354 Rocket 4.3 22:25:27 10° NNW 22:30:46 61° ENE 22:34:00 24° SE
Cosmos 968 Rocket 3.8 22:25:53 10° NNW 22:30:53 56° WSW 22:33:31 27° S
Cosmos 1464 Rocket 4.3 22:26:09 10° N 22:32:28 63° ENE 22:36:22 24° SSE
Lacrosse 5 rocket 1.4 22:29:58 10° WSW 22:33:34 61° NNW 22:37:08 10° NE
Cosmos 1992 Rocket 4.0 22:32:39 26° S 22:35:34 69° ESE 22:40:47 10° NNE
GEOS 3 Rocket 4.0 22:36:02 27° S 22:38:43 51° SW 22:43:56 10° NW
Cosmos 1184 Rocket 3.4 22:38:30 37° ESE 22:38:58 39° E 22:42:03 10° NNE
Cosmos 1607 4.0 22:36:52 10° NW 22:43:21 80° NE 22:47:53 20° SE
Meteor 2-1 Rocket 4.3 22:40:21 10° N 22:45:52 69° ENE 22:48:54 27° SSE
Terra 4.1 22:45:45 10° WSW 22:48:28 15° W 22:51:12 10° NW
Cosmos 1703 3.8 22:49:57 34° SE 22:51:08 46° E 22:54:56 10° NNE
Cosmos 1980 3.8 22:50:46 28° S 22:53:43 61° ESE 22:59:20 10° NE
Cosmos 1441 Rocket 3.7 22:52:52 35° SE 22:53:55 45° E 22:57:36 10° NNE
FALCON 9 DEB 2.7 22:56:14 47° SW 22:57:00 76° SSE 23:00:09 10° ENE
Cosmos 2333 Rocket 3.3 22:52:29 10° SW 22:57:58 44° NW 23:03:26 10° NNE
Cosmos 1943 Rocket 3.6 22:53:52 10° NNW 22:58:49 32° NE 23:03:44 10° ESE
Cosmos 2228 4.2 22:55:21 10° NNW 22:59:20 34° W 23:01:23 22° SW
FALCON 9 DEB 4.1 22:56:02 10° W 22:59:22 47° NNW 23:02:41 10° ENE
BREEZE-M DEB (TANK) 2.7 22:58:02 10° SW 23:05:36 52° SSE 23:08:25 10° E
Cosmos 2034 Rocket 4.0 22:59:40 10° N 23:05:54 77° E 23:09:25 27° SSE
Okean 1-7 Rocket 3.6 23:06:13 36° S 23:08:00 75° E 23:12:29 10° NNE
Cosmos 2219 Rocket 3.4 23:07:36 10° WSW 23:12:56 40° NW 23:18:17 10° NNE
SAR-Lupe-2 3.5 23:11:03 10° NNE 23:14:38 70° ESE 23:15:31 47° S
ATLAS 3B R/B 3.4 23:09:46 10° WSW 23:16:11 52° NW 23:22:52 10° NE
Cosmos 1503 Rocket 4.4 23:11:44 10° NNW 23:16:57 52° WSW 23:19:20 30° SSW
FALCON 9 DEB 3.2 23:16:35 13° WSW 23:19:15 64° NNW 23:22:21 10° ENE
USA 32 4.2 23:16:11 10° N 23:21:26 64° E 23:24:07 28° SSE
FALCON 9 DEB 3.0 23:19:50 22° WSW 23:21:41 72° NNW 23:24:48 10° ENE
ATLAS CENTAUR R/B 3.7 23:19:47 10° W 23:21:54 13° WSW 23:22:33 13° WSW
SL-16 R/B 3.0 23:20:20 26° SSE 23:22:37 36° ESE 23:27:45 10° NE
Cosmos 2058 Rocket 3.6 23:19:34 10° NNW 23:23:51 47° W 23:25:34 31° SSW
Cosmos 1812 Rocket 3.9 23:22:00 10° N 23:26:18 56° ENE 23:28:14 30° SE
USA 215 3.5 23:21:01 10° NE 23:27:32 71° NNW 23:34:01 10° WSW
Cosmos 2237 Rocket 2.2 23:24:08 24° SSW 23:27:35 83° WNW 23:33:15 10° NNE
FALCON 9 DEB 3.4 23:25:34 12° W 23:28:22 59° NNW 23:31:28 10° ENE
ATLAS CENTAUR R/B 3.6 23:25:38 26° SSW 23:29:01 63° SE 23:42:38 10° NE
Tsikada Rocket 4.0 23:28:42 28° S 23:32:06 72° E 23:38:14 10° NNE
SL-16 R/B 4.5 23:29:10 10° ESE 23:33:52 23° NE 23:38:35 10° N
Thor Agena Rocket 3.6 23:28:39 10° NNE 23:33:57 74° ESE 23:36:27 31° S
GP-B 3.2 23:30:47 10° N 23:35:15 69° E 23:37:02 35° SSE
Cosmos 1455 3.8 23:33:15 10° NW 23:36:21 23° W 23:37:30 20° WSW
Cosmos 2369 Rocket 3.6 23:32:14 10° NNW 23:37:29 35° NE 23:42:40 10° ESE
Meteor 1-4 Rocket 2.5 23:40:41 10° NNW 23:44:10 62° W 23:44:51 48° SSW
Cosmos 724 4.3 23:39:18 10° NW 23:45:33 89° SW 23:50:00 19° SE
COSMOS 2428 4.4 23:45:06 10° WSW 23:50:03 29° NW 23:55:03 10° NNE
ALOS 2 4.1 23:49:12 21° SW 23:50:41 25° W 23:54:20 10° NW
SJ 16-02 1.3 23:50:31 10° NNW 23:54:56 81° ENE 23:57:01 30° SSE
